Погода в Курске

Погода в Курске : погода сейчас, прогноз погоды и архив. Всё, что Вы хотите узнать о погоде в Курске!

Хотите узнать прогноз погоды в Курске? Тогда Вам сюда: Погода в Курске

Поиск расширенной информации на нашем сайте:

Полезная информация:

Другие новости

Новости СМИ2

Главная страница сайта

Новости сайта

03.07.2017

Напоминаем, что на нашем специализированном сайте Метеоцентр.Азия вы можете получить высокодетализированные автоматические прогнозы погоды по пунктам России, СНГ и мира в авиационном формате (включающие направление и скорость ветра, видимость, явления погоды, количество и форму облачности, нижнюю и верхнюю границу облачности).

Рекомендуем:

Погода в Курске - сегодня

Время (UTC), дата Ветер
(°,м/с) 
Видим.   Явления Облачность Т
(°С)
Тd
(°С)
f(%) Тe
(°С)
Pmin
(гПа)
dP
(гПа)
Po
(мм)
O2
(г/м3)
Тmin Tmax R s Состояние
почвы
12 15.07.19 190 (Ю) 10 км    8/8 600 м верхняя 
[Cu hum|Ci fib]
+25.7 +7.4 31 +26  1007.8  -0.7  735  269           
15 15.07.19 180 (Ю) 10 км    9/8 600 м средняя 
[Sc|Ac trans]
+24.6 +7.7 34 +25  1007.7  -0.2  735  270           
18 15.07.19 340 (С) 10 км    9/3 600 м средняя, верхняя 
[Sc|Ac trans|Ci fib]
+19.3 +13.1 67 +27  1008.9  0.7  735  274    +26.2       
21 15.07.19 040 (СВ) 10 км    8/0 средняя, верхняя 
[Ac trans|Ci fib]
+17.2 +13.5 79 +25  1009.1  735  276           
00 16.07.19 тихо ()   10 км    8/5 600 м верхняя 
[Sc|Ci fib]
+15.5 +13.2 86 +22  1008.5  -0.7  735  277           
03 16.07.19 020 (С) 10 км    10/8 600 м средняя, верхняя 
[Sc|Ac trans|Ci fib]
+15.3 +12.7 84 +21  1008.7  0.2  735  278  +13.9         
06 16.07.19 280 (З) 10 км  слаб. ливневой дождь  10/10 600 м кучево-дожд. 
[Cb cap]
+16.5 +13.7 84 +25  1008.7  -0.1  735  276  +13.9    0.0    сухая 
09 16.07.19 360 (С) 10 км  {ливн. осадки}  9/0 средняя, верхняя 
[Ac As|Ci fib]
+23.1 +12.8 52 +29  1007.4  -0.7  734  270           
12 16.07.19 100 (В) 4-10{10}  10 км  {ливн. осадки}  9/3 1000 м верхняя 
[Cu med, cong|Ci fib]
+25.2 +11.5 42 +29  1005.9  -1.2  734  268           
15 16.07.19 100 (В) 2{10}  10 км  слаб. ливневой дождь{гроза}  10/10 600 м кучево-дожд. 
[Cb cap]
+17.8 +15.8 88 +30  1007.2  0.5  734  274         
18 16.07.19 120 (ЮВ) 10 км  {гроза, ливн. осадки}  9/3 600 м средняя, верхняя 
[Sc|Ac As|Ci fib]
+18.2 +13.6 75 +26  1007.5  0.4  734  275    +26.4     
21 16.07.19 130 (ЮВ) 10 км    9/5 600 м средняя 
[Sc|Ac trans]
+16.1 +13.2 83 +23  1008  0.2  734  277           
00 17.07.19 120 (ЮВ) 10 км    8/8 600 м 
[Sc]
+14.7 +13.6 93 +23  1007.9  0.2  734  278           
03 17.07.19 100 (В) 0500 м  туман  ?/?  
+13.6 +13.5 99 +21  1007.3  -0.7  734  279  +13.5    0.0     
06 17.07.19 060 (СВ) 4000 м  дымка{туман}  10/10 600 м 
[Sc]
+16.4 +14.6 89 +27  1006.7  -0.3  733  276  +13.5        влажная 
09 17.07.19 140 (ЮВ) 10 км    9/8 600 м средняя 
[Sc diur, vesp|Ac trans]
+20.3 +13.9 67 +28  1005.8  -0.5  733  272           
12 17.07.19 160 (Ю) 10 км  гроза, ливневой дождь  10/10 600 м кучево-дожд. 
[Cb cap]
+17.7 +15.9 89 +30  1005.3  -0.7  733  274           
15 17.07.19 350 (С) 10 км  в посл. час гроза{ливн. осадки}  9/8 600 м средняя, верхняя 
[Cu med, cong|Ac trans|Ci fib]
+20.1 +13.7 67 +27  1005  -0.1  732  272         
18 17.07.19 100 (В) 10 км  {гроза, ливн. осадки}  8/4 600 м средняя, верхняя 
[Sc diur, vesp|Ac trans|Ci fib]
+17.1 +13.6 80 +26  1005.9  0.6  733  275    +22.2     
21 17.07.19 250 (З) 10 км    8/5 600 м средняя, верхняя 
[Sc|Ac trans|Ci fib]
+15.4 +11.7 79 +21  1006.1  733  277           
00 18.07.19 190 (Ю) 10 км    3/0 верхняя 
[Ci fib]
+13.2 +11.2 88 +17  1006.3  733  280           
03 18.07.19 180 (Ю) 10 км    8/3 600 м средняя, верхняя 
[Sc|Ac trans|Ci fib]
+13.5 +11.3 87 +18  1006.4  -0.1  733  279  +11.9         
06 18.07.19 230 (ЮЗ) 10 км  {ливн. осадки}  8/8 600 м средняя 
[Sc|Ac trans]
+16.9 +12.9 77 +24  1006.4  0.3  733  276  +11.9    0.0    влажная 
09 18.07.19 220 (ЮЗ) 3{10}  10 км    8/8 600 м 
[Cu med, cong]
+20.5 +11.6 57 +24  1006.3  0.2  733  273           
12 18.07.19 240 (ЮЗ) 4{10}  10 км    8/6 600 м верхняя 
[Sc diur, vesp|Ci fib]
+21.9 +8.4 42 +22  1006.9  0.7  734  272           
Время (UTC), дата Ветер
(°,м/с) 
Видим.   Явления Облачность Т
(°С)
Тd
(°С)
f(%) Тe
(°С)
Pmin
(гПа)
dP
(гПа)
Po
(мм)
O2
(г/м3)
Тmin Tmax R s Состояние
почвы

Для получения пояснительной информации подведите курсор к названию столбца.

ПОГОДА в Курске - архив

Всё, что Вы хотите узнать о погоде в Курске - удобно и подробно!

Выберите нужную дату (начиная с 1 января 2018* года) и нажмите кнопку "Найти".
Будут отображены архивные сводки погоды по пункту Курск, начиная с указанной даты.


Отображать данные в формате CSV (для использования в таблицах Excel)


Внимание! Наш архив погоды предназначен исключительно для личного некоммерческого использования в познавательных целях. Если Вам необходимы официальные справки о состоянии погоды (для производственных, юридических, коммерческих и т.п. целей), обращайтесь в органы Росгидромета.

*Примечание: данная дата относится к архиву по метеостанциям СССР (Россия, СНГ, Балтия).
Архив по метеостанциям Зарубежной Европы и Азии (кроме Китая) хранится 10 дней, по другим регионам земного шара (Китай, Африка, Америка, Австралия, Океания) - 1 день.

Курск - район местоположения метеостанции


Название, широта, долгота, высота метеостанции:
Курск 51.8°ш. 36.2°д. 247 м над ур. моря [Российская Федерация]

Дополнительная информация

В oтличие oт бoльшинства пoгoдных сайтoв мы публикуем пoдрoбную метеoинфoрмацию в детальнoм прoфессиoнальнoм фoрмате.

Характеристики температуры и влажнoсти вoздуха измеряются на высoте 2 м в тени вдали oт зданий и деревьев.
Скoрoсть ветра измеряется на высoте 10 м (на урoвне рoста челoвека скoрoсть ветра ниже в 1.5-2 раза). Если метеoстанция нахoдится в гoрoде или в лесу, тo скoрoсть ветра занижена на 2-4 м/с пo сравнению с oткрытым местoм. Скoрoсть ветра над акватoриями крупных рек и oзёр, а также на вершинах хoлмoв на 2-5 м/с выше, чем в oбычных услoвиях.
Атмoсфернoе давление в разных тoчках местнoсти мoжет значительнo oтличаться oт давления на метеoстанции, в зависимoсти oт услoвий рельефа (при пoдъёме на 10 м давление пoнижается примернo на 1 мм рт.ст.).